DW7251 Weather Reports


Display with metric or nautical units.
time (UTC)temp
F
wind
direction
speed
MPH
gust
MPH
rain 1hr
in
rain 24hr
in
rain mn
in
humidity
%
barometer
mb
20260905123319 55 236 5.0 14.0 0.00 0.57 0.57 82 1010.2
20260905122826 55 265 5.0 14.0 0.00 0.57 0.57 81 1010.1
20260905121706 55 255 3.0 13.0 0.00 0.58 0.57 81 1009.8
20260905120535 55 272 4.0 13.0 0.00 0.59 0.57 80 1009.6
20260905120027 55 272 4.0 13.0 0.00 0.59 0.57 80 1009.6
20260905115528 55 355 4.0 12.0 0.00 0.59 0.57 81 1009.6
20260905114400 55 304 5.0 14.0 0.00 0.59 0.57 81 1009.3
20260905113858 55 269 6.0 14.0 0.00 0.59 0.57 81 1009.4
20260905113356 55 272 5.0 14.0 0.00 0.59 0.57 81 1009.3
20260905112900 55 269 3.0 14.0 0.00 0.59 0.57 81 1009.3
20260905112357 55 292 3.0 18.0 0.00 0.59 0.57 81 1009.2
20260905111236 56 300 8.0 18.0 0.00 0.59 0.57 80 1008.9
20260905110730 56 282 7.0 18.0 0.00 0.59 0.57 79 1008.9
20260905110212 56 279 6.0 16.0 0.00 0.59 0.57 79 1008.8
20260905105035 56 32 6.0 12.0 0.00 0.59 0.57 79 1008.7
20260905104316 56 268 4.0 16.0 0.00 0.59 0.57 79 1008.5
20260905103217 56 230 3.0 15.0 0.00 0.60 0.57 79 1008.2
20260905102721 56 317 3.0 15.0 0.00 0.60 0.57 78 1008.1
20260905102219 56 321 5.0 15.0 0.00 0.60 0.57 78 1008.0
20260905101717 56 250 5.0 15.0 0.00 0.60 0.57 79 1008.0
20260905101223 56 262 4.0 13.0 0.00 0.60 0.57 78 1007.9
20260905100722 56 261 4.0 13.0 0.00 0.60 0.57 78 1007.8
20260905100224 56 337 4.0 12.0 0.00 0.60 0.57 77 1007.7
20260905094426 56 257 5.0 16.0 0.00 0.60 0.57 77 1007.3
20260905093255 56 290 6.0 16.0 0.00 0.60 0.57 78 1007.0
20260905092747 56 247 5.0 16.0 0.00 0.59 0.56 78 1006.9
20260905092244 56 316 4.0 14.0 0.00 0.59 0.56 78 1006.8
20260905091749 56 264 4.0 14.0 0.00 0.59 0.56 78 1006.7
20260905091230 56 224 4.0 13.0 0.00 0.59 0.56 79 1006.7
20260905090738 56 262 4.0 13.0 0.00 0.59 0.56 79 1006.6
20260905090218 55 313 4.0 13.0 0.00 0.59 0.56 80 1006.4
20260905085708 55 298 3.0 13.0 0.00 0.59 0.56 80 1006.1
20260905085157 55 338 2.0 12.0 0.00 0.59 0.56 81 1006.0
20260905084703 55 352 2.0 9.0 0.00 0.59 0.56 81 1006.1
20260905084157 55 281 1.0 7.0 0.00 0.59 0.56 82 1005.9
20260905083643 55 292 2.0 8.0 0.00 0.59 0.56 82 1006.0
20260905083142 55 269 2.0 8.0 0.00 0.59 0.56 82 1005.9
20260905082647 55 236 2.0 8.0 0.00 0.59 0.56 82 1005.8
20260905082130 55 236 2.0 7.0 0.00 0.59 0.56 83 1005.7
20260905081631 55 261 2.0 11.0 0.00 0.59 0.56 83 1005.7
20260905080453 55 286 3.0 11.0 0.00 0.59 0.56 84 1005.3
20260905075950 55 253 3.0 9.0 0.00 0.59 0.56 85 1005.1
20260905075431 55 268 2.0 9.0 0.00 0.59 0.56 86 1005.2
20260905074246 55 311 1.0 14.0 0.00 0.59 0.56 87 1004.8
20260905073751 55 268 4.0 14.0 0.00 0.59 0.56 88 1004.9
20260905073233 55 256 5.0 14.0 0.00 0.59 0.56 88 1005.0
20260905072056 54 301 1.0 6.0 0.00 0.59 0.56 89 1004.9
20260905071550 54 260 2.0 8.0 0.00 0.59 0.56 88 1004.7
20260905071042 55 236 3.0 8.0 0.00 0.59 0.56 88 1004.6
20260905070537 55 280 3.0 12.0 0.00 0.59 0.56 87 1004.3
20260905070026 55 301 5.0 12.0 0.00 0.59 0.56 87 1004.3
20260905064847 56 334 6.0 17.0 0.07 0.59 0.56 82 1004.6
20260905064356 58 345 7.0 17.0 0.29 0.59 0.56 76 1004.3
20260905063839 61 283 5.0 17.0 0.00 0.42 0.37 72 1004.4
20260905063326 62 92 3.0 16.0 0.00 0.42 0.37 69 1003.6
20260905062149 64 316 3.0 14.0 0.00 0.42 0.37 66 1003.0
20260905061629 64 283 4.0 14.0 0.00 0.42 0.37 65 1003.0
20260905061136 63 328 5.0 14.0 0.00 0.42 0.37 64 1003.0
20260905060638 63 296 4.0 14.0 0.00 0.42 0.37 67 1003.0
20260905060133 63 279 3.0 8.0 0.00 0.42 0.37 67 1003.0
20260905055637 63 299 3.0 10.0 0.00 0.42 0.37 68 1003.1
20260905055131 63 241 3.0 10.0 0.00 0.42 0.37 67 1003.2
20260905054624 63 345 3.0 14.0 0.00 0.42 0.37 67 1003.3
20260905054111 63 250 5.0 14.0 0.00 0.42 0.37 65 1003.2
20260905052945 63 243 5.0 14.0 0.00 0.42 0.37 59 1003.1
20260905052448 64 239 5.0 14.0 0.00 0.42 0.37 62 1002.8
20260905051941 64 321 5.0 14.0 0.00 0.42 0.37 57 1002.6
20260905051433 64 40 4.0 12.0 0.00 0.42 0.37 60 1002.6
20260905050934 65 354 3.0 14.0 0.00 0.42 0.37 61 1002.6
20260905050429 65 317 4.0 14.0 0.00 0.42 0.37 62 1002.5
20260905045926 65 269 4.0 16.0 0.00 0.42 0.37 62 1002.5
20260905045428 64 307 4.0 16.0 0.00 0.42 0.37 62 1002.4
20260905044927 64 302 5.0 16.0 0.00 0.42 0.37 62 1002.4
20260905044413 64 245 5.0 16.0 0.00 0.42 0.37 59 1002.3
20260905043859 64 262 5.0 13.0 0.00 0.42 0.37 63 1002.4
20260905042713 63 263 5.0 14.0 0.00 0.42 0.37 64 1002.3
20260905041607 63 226 9.0 17.0 0.00 0.42 0.37 63 1002.2
20260905041050 63 298 9.0 17.0 0.00 0.42 0.37 62 1002.3
20260905035926 63 320 9.0 16.0 0.00 0.42 0.37 64 1002.3
20260905035428 63 248 8.0 18.0 0.00 0.42 0.37 62 1002.4
20260905034912 63 300 8.0 18.0 0.00 0.42 0.37 66 1002.4
20260905034409 63 284 7.0 18.0 0.00 0.42 0.37 68 1002.4
20260905033908 63 260 5.0 18.0 0.00 0.42 0.37 68 1002.4
20260905033411 63 301 5.0 13.0 0.00 0.42 0.37 70 1002.4
20260905032859 62 271 7.0 16.0 0.00 0.42 0.37 70 1002.5
20260905032402 62 295 8.0 16.0 0.00 0.42 0.37 69 1002.6
20260905030621 62 245 9.0 17.0 0.00 0.42 0.37 69 1002.8
20260905030111 61 254 9.0 17.0 0.00 0.42 0.37 72 1002.9
20260905025605 60 243 8.0 14.0 0.00 0.42 0.37 73 1003.0
20260905025110 60 306 8.0 14.0 0.00 0.42 0.37 74 1002.9
20260905024606 60 253 8.0 19.0 0.03 0.42 0.37 73 1003.0
20260905024052 59 249 10.0 19.0 0.05 0.42 0.37 73 1003.0
20260905023553 59 269 11.0 21.0 0.07 0.42 0.37 72 1003.2
20260905023048 59 344 11.0 21.0 0.06 0.42 0.37 72 1003.1
20260905021310 61 238 10.0 24.0 0.33 0.42 0.36 69 1003.3
20260905020801 64 262 7.0 19.0 0.00 0.39 0.36 64 1003.0
20260905020259 63 248 6.0 19.0 0.00 0.39 0.36 65 1002.7
20260905015758 64 251 6.0 19.0 0.00 0.39 0.36 66 1002.8
20260905015254 64 73 8.0 19.0 0.00 0.39 0.36 64 1002.9
20260905014744 64 284 8.0 19.0 0.00 0.39 0.36 63 1002.8
20260905013607 65 264 8.0 18.0 0.00 0.39 0.36 62 1002.8
20260905013058 65 227 8.0 16.0 0.00 0.39 0.36 64 1002.8
20260905012541 65 308 7.0 16.0 0.00 0.39 0.36 65 1002.9
20260905011404 64 295 6.0 16.0 0.00 0.39 0.36 66 1002.9
20260905010857 63 307 3.0 16.0 0.00 0.39 0.36 73 1002.9
20260905010345 63 307 3.0 16.0 0.00 0.39 0.36 73 1002.9
20260905005845 63 278 3.0 16.0 0.00 0.39 0.36 80 1002.8
20260905005344 62 268 3.0 10.0 0.00 0.39 0.36 82 1002.9
20260905004828 62 297 3.0 10.0 0.00 0.39 0.36 84 1002.8
20260905004324 61 321 3.0 10.0 0.00 0.39 0.36 87 1002.8
20260905003822 61 317 4.0 13.0 0.00 0.39 0.36 90 1003.0
20260905003306 60 314 3.0 13.0 0.00 0.39 0.36 92 1003.1
20260905001501 59 321 3.0 8.0 0.00 0.39 0.36 93 1003.2
20260905001010 58 309 4.0 11.0 0.00 0.39 0.36 93 1003.2
20260905000459 58 317 3.0 11.0 0.00 0.39 0.36 93 1003.0
20260904235949 58 340 3.0 13.0 0.00 0.39 0.36 93 1003.1
20260904235449 58 9 4.0 13.0 0.00 0.39 0.36 93 1003.1
20260904234943 58 336 4.0 13.0 0.00 0.39 0.36 93 1003.2
20260904234431 58 6 3.0 13.0 0.00 0.39 0.36 93 1003.3
20260904233927 57 319 3.0 10.0 0.00 0.39 0.36 93 1003.2
20260904233431 57 297 3.0 10.0 0.00 0.39 0.36 93 1003.3
20260904232922 57 352 4.0 13.0 0.00 0.39 0.36 93 1003.4
20260904231804 57 341 3.0 14.0 0.00 0.39 0.36 94 1003.5
20260904231310 57 79 3.0 14.0 0.00 0.39 0.36 94 1003.5
20260904230148 56 0 3.0 9.0 0.00 0.39 0.36 94 1003.6
20260904225657 56 12 3.0 9.0 0.00 0.39 0.36 94 1003.5
20260904225134 56 315 3.0 9.0 0.00 0.39 0.36 94 1003.5
20260904224018 56 334 2.0 11.0 0.00 0.39 0.36 94 1003.6
20260904223528 56 324 3.0 11.0 0.00 0.39 0.36 94 1003.5
20260904223019 56 58 3.0 11.0 0.00 0.39 0.36 94 1003.5
20260904222511 56 34 3.0 11.0 0.00 0.39 0.36 94 1003.9
20260904222002 56 4 2.0 9.0 0.00 0.39 0.36 94 1003.6
20260904221507 56 322 2.0 10.0 0.00 0.39 0.36 94 1003.8
20260904220949 56 47 3.0 10.0 0.00 0.39 0.36 94 1004.0
20260904215800 56 311 3.0 13.0 0.00 0.39 0.36 94 1003.9
20260904214639 55 331 4.0 11.0 0.00 0.39 0.36 94 1003.9
20260904214126 55 38 4.0 14.0 0.00 0.39 0.36 94 1003.8
20260904213614 55 34 3.0 14.0 0.00 0.39 0.36 94 1003.8
20260904213120 55 58 4.0 16.0 0.00 0.39 0.36 94 1003.6
20260904211954 55 42 6.0 16.0 0.06 0.39 0.36 93 1003.5
20260904211455 55 322 6.0 16.0 0.07 0.39 0.36 93 1003.6
20260904210943 56 3 5.0 15.0 0.14 0.38 0.35 93 1003.6
20260904210428 56 10 6.0 15.0 0.07 0.37 0.34 93 1003.8
20260904205913 56 335 6.0 15.0 0.00 0.37 0.33 93 1004.2
20260904205412 56 56 5.0 15.0 0.00 0.36 0.33 93 1004.2
20260904204859 56 339 5.0 15.0 0.03 0.36 0.33 92 1004.8
20260904204343 56 14 5.0 15.0 0.07 0.36 0.33 92 1004.7
20260904203836 56 32 6.0 15.0 0.20 0.36 0.33 92 1004.7
20260904203327 56 23 6.0 14.0 0.11 0.34 0.31 92 1005.0
20260904202824 56 28 5.0 13.0 0.17 0.33 0.30 92 1005.0
20260904202333 56 316 5.0 14.0 0.03 0.32 0.29 93 1005.0
20260904201836 56 13 4.0 14.0 0.03 0.31 0.28 93 1005.0
20260904201341 56 344 4.0 14.0 0.04 0.31 0.28 93 1005.0
20260904200825 57 42 5.0 14.0 0.11 0.31 0.28 93 1004.8
20260904200309 57 12 4.0 12.0 0.09 0.30 0.27 93 1005.0
20260904195757 56 343 3.0 12.0 0.00 0.29 0.25 93 1004.9
20260904195257 56 347 3.0 12.0 0.00 0.29 0.25 93 1004.8
20260904194144 56 350 3.0 14.0 0.00 0.29 0.25 93 1004.7
20260904193638 56 37 3.0 14.0 0.00 0.29 0.25 93 1004.8
20260904193127 56 48 4.0 14.0 0.00 0.29 0.25 93 1004.9
20260904192621 56 312 5.0 14.0 0.00 0.29 0.25 93 1005.2
20260904192115 56 46 4.0 13.0 0.00 0.29 0.25 93 1005.2
20260904191624 56 57 5.0 13.0 0.00 0.29 0.25 93 1005.4
20260904185242 56 42 4.0 15.0 0.00 0.29 0.25 92 1005.5
20260904184114 56 0 5.0 15.0 0.03 0.29 0.25 92 1005.6
20260904183603 56 353 6.0 15.0 0.07 0.29 0.25 92 1005.6
20260904183103 56 87 5.0 16.0 0.08 0.28 0.25 91 1005.6
20260904182611 56 38 5.0 16.0 0.14 0.28 0.25 90 1005.5
20260904182115 57 20 5.0 16.0 0.28 0.25 0.24 89 1005.8
20260904181559 58 339 6.0 16.0 0.37 0.23 0.21 84 1005.8
20260904181051 58 344 5.0 15.0 0.00 0.21 0.18 84 1006.1
20260904180548 58 340 4.0 15.0 0.00 0.21 0.18 84 1005.8
20260904180046 58 39 5.0 15.0 0.00 0.21 0.18 84 1005.4
20260904174923 58 338 6.0 15.0 0.00 0.21 0.18 85 1005.1
20260904174427 58 353 6.0 15.0 0.00 0.21 0.18 85 1005.1
20260904173932 58 11 6.0 15.0 0.00 0.21 0.18 86 1005.1
20260904173433 58 2 6.0 14.0 0.03 0.21 0.18 86 1005.2
20260904172921 58 358 6.0 14.0 0.06 0.21 0.18 86 1005.7
20260904172407 58 358 6.0 14.0 0.06 0.21 0.18 86 1005.7
20260904171901 58 227 6.0 15.0 0.06 0.20 0.17 86 1005.8
20260904170716 58 18 8.0 18.0 0.00 0.18 0.15 85 1006.1
20260904170220 58 291 8.0 18.0 0.00 0.18 0.15 85 1006.1
20260904165708 58 77 7.0 21.0 0.00 0.18 0.14 85 1006.4
20260904165201 58 78 8.0 21.0 0.00 0.18 0.14 85 1006.5
20260904164648 58 46 7.0 21.0 0.03 0.18 0.14 85 1006.7
20260904164151 58 21 7.0 21.0 0.03 0.18 0.14 85 1006.8
20260904163645 58 160 9.0 21.0 0.04 0.18 0.14 85 1006.9
20260904162503 58 338 8.0 18.0 0.07 0.17 0.14 85 1006.9
20260904161354 58 72 9.0 20.0 0.03 0.16 0.13 85 1007.3
20260904160856 58 3 8.0 20.0 0.06 0.15 0.12 84 1007.3
20260904160352 58 298 8.0 20.0 0.06 0.15 0.12 84 1007.5
20260904155844 58 342 8.0 18.0 0.08 0.14 0.11 84 1007.6
20260904155353 59 9 8.0 17.0 0.11 0.14 0.11 83 1007.9
20260904154846 59 330 8.0 23.0 0.08 0.13 0.10 83 1008.2
20260904154346 59 33 7.0 23.0 0.00 0.12 0.09 82 1008.3
20260904153836 59 343 7.0 23.0 0.00 0.11 0.08 82 1008.5
20260904153329 59 345 8.0 23.0 0.00 0.11 0.08 82 1008.3
20260904152834 59 333 7.0 23.0 0.00 0.11 0.08 83 1008.3
20260904152342 59 321 5.0 23.0 0.03 0.11 0.08 83 1008.4
20260904151845 59 37 6.0 23.0 0.03 0.11 0.08 83 1008.8
20260904151327 59 340 7.0 23.0 0.03 0.11 0.08 83 1009.0
20260904150155 58 286 8.0 16.0 0.00 0.10 0.07 84 1009.0
20260904145650 58 343 6.0 16.0 0.00 0.10 0.07 85 1008.9
20260904144535 58 61 5.0 12.0 0.00 0.10 0.07 85 1009.1
20260904144014 57 5 5.0 14.0 0.03 0.10 0.07 85 1009.2
20260904143459 57 5 5.0 14.0 0.03 0.10 0.07 85 1009.2
20260904143001 57 37 5.0 19.0 0.04 0.10 0.07 85 1009.2
20260904142446 58 344 5.0 19.0 0.10 0.10 0.07 85 1009.3
20260904141935 58 52 6.0 19.0 0.06 0.03 0.03 83 1009.6
20260904141427 58 52 6.0 19.0 0.06 0.03 0.03 83 1009.6
20260904140235 60 61 6.0 12.0 0.13 0.03 0.00 80 1009.6
20260904135745 60 351 5.0 12.0 0.00 0.03 0.03 80 1009.8
20260904134622 60 342 6.0 18.0 0.00 0.03 0.03 79 1010.1
20260904134103 60 314 7.0 18.0 0.00 0.03 0.03 79 1010.2
20260904133609 60 303 7.0 18.0 0.00 0.03 0.03 78 1010.2
20260904133117 60 159 7.0 18.0 0.00 0.03 0.03 78 1010.2
20260904132624 60 306 7.0 18.0 0.00 0.03 0.03 79 1010.1
20260904132111 60 15 6.0 18.0 0.00 0.03 0.03 79 1010.2
20260904131612 60 16 6.0 18.0 0.00 0.03 0.03 79 1010.2
20260904131111 60 5 6.0 17.0 0.00 0.03 0.03 80 1010.3
20260904130612 60 314 5.0 12.0 0.00 0.03 0.03 81 1010.3
20260904130106 59 328 4.0 12.0 0.00 0.03 0.03 83 1010.4
20260904125554 58 344 3.0 12.0 0.00 0.03 0.03 85 1010.2
20260904125036 58 312 2.0 10.0 0.00 0.03 0.03 85 1010.5
20260904124534 58 338 1.0 10.0 0.00 0.03 0.03 85 1010.6
20260904124018 57 28 2.0 10.0 0.00 0.03 0.03 84 1010.7